SCP
0 0 0 0 0 0 0 0 0 0 0 0 0 0 0 0 0 0 0 0 0 -0 0 0 0 0 0 0 0 0 0 0 0 0 0 0 0 0
0 0 0 0 0 0 0 0 0 0 0 0 0 0 0 0 0 0 0 0 -0 0 0 0 0 0 0 0 0 0 0 0 0 0 0 0 0 0
0 0 0 0 0 0 0 0 0 0 0 -0 0 0 0 0 0 0 0 0 0 -0 0 0 0 0 0 0 0 0 0 0 0 0 0 0 0 0
0 0 0 0 0 0 0 0 0 0 0 0 -0 -0 -0 0 0 0 0 0 0 0 0 0 0 0 0 0 0 0 0 0 0 0 0 0 0 0
0 0 0 0 0 0 0 0 0 0 0 0 -0 -0 0 0 0 0 0 0 0 0 0 0 0 0 0 0 0 0 0 0 0 0 0 0 0 0
0 0 0 0 0 0 0 0 0 0 -0 -0 0 -0 0 0 0 0 0 0 0 0 0 0 0 0 0 0 0 0 0 0 0 0 0 0 0 0
0 0 0 0 0 0 0 0 0 0 -0 -0 -0 -0 -0 0 0 0 0 0 0 0 0 0 0 0 0 0 0 0 0 0 0 0 0 0 0 0
0 0 0 0 0 -0 -0 0 0 0 -0 -0 -0 -0 -0 0 0 0 0 0 0 0 0 0 0 0 0 0 0 0 0 0 0 0 0 0 0 0
0 0 0 0 0 0 -0 -0 -0 -0 -0 -0 -0 -0 -0 0 0 0 0 0 0 0 0 0 0 0 0 0 0 0 0 0 0 0 0 0 0 0
0 0 0 0 0 0 0 -0 -0 -0 -0 -0 0 0 -0 0 0 -0 0 0 0 0 0 0 0 0 0 0 0 0 0 0 0 0 0 0 0 0
0 0 0 0 0 0 0 -0 -0 -0 -0 0 0 0 -0 0 0 0 0 0 0 0 0 0 0 0 0 0 0 -0 0 0 0 0 0 0 0 0
0 0 0 0 -0 0 0 0 -0 -0 0 0 -0 0 0 0 0 0 0 0 0 0 0 0 0 0 0 0 0 0 0 0 0 0 0 0 0 0
0 0 0 -0 0 -0 0 0 0 0 -0 0 -0 0 -0 0 0 0 0 0 0 0 0 0 0 0 0 0 0 0 0 0 0 0 0 0 0 0
0 0 0 0 -0 0 0 -0 0 0 0 0 -0 0 0 0 0 0 0 0 0 0 0 0 0 0 0 0 0 0 0 0 0 0 0 0 0 0
0 0 0 0 0 0 0 0 0 0 0 -0 -0 -0 -0 0 0 0 0 0 0 0 0 0 0 0 0 0 0 0 0 0 0 0 0 0 0 0
0 0 0 0 0 0 0 0 0 0 0 0 0 0 0 0 0 0 0 0 0 0 0 0 0 0 0 0 0 0 0 0 0 0 0 0 0 0
0 0 0 0 0 0 0 0 0 0 0 0 0 0 0 0 0 0 0 0 0 0 0 0 0 0 0 0 0 0 0 0 0 0 0 0 0 0
0 0 0 0 0 0 0 0 0 0 0 0 0 0 0 0 0 0 0 0 0 0 0 0 0 0 0 0 0 0 0 0 0 0 0 0 0 0
0 0 0 0 0 0 0 0 0 0 0 0 0 0 0 0 0 0 0 0 0 0 0 0 0 0 0 0 0 0 0 0 0 0 0 0 0 0
0 0 0 0 0 0 0 0 0 0 0 0 0 0 0 0 0 0 0 0 0 0 0 0 0 0 0 0 0 0 0 0 0 0 0 0 0 0
0 0 0 0 0 0 0 0 0 0 0 0 0 0 0 0 0 0 0 0 0 0 0 0 0 0 0 0 0 0 0 0 0 0 0 0 0 0
0 0 0 0 0 0 0 0 0 0 0 0 0 0 0 0 0 0 0 0 0 0 0 0 0 0 0 0 0 0 0 0 0 0 0 0 0 0
0 0 0 0 0 0 0 0 0 0 0 0 0 0 0 0 0 0 0 0 0 0 0 0 0 0 0 0 0 0 0 0 0 0 0 0 0 0
Wind_Speed_500mb
58 59 56 51 54 49 46 44 41 44 48 39 34 33 24 25 31 33 22 24 23 23 27 33 32 37 47 49 48 41 35 37 30 35 36 36 26 30
64 61 54 52 38 44 46 45 40 45 55 46 36 27 35 25 29 21 22 27 24 29 25 33 39 42 39 36 40 44 43 41 33 37 37 34 30 30
69 54 49 45 49 46 45 44 43 41 49 52 42 35 33 26 30 27 30 28 27 22 23 27 37 38 39 40 41 45 42 37 38 36 33 28 25 31
51 49 49 49 48 44 43 45 46 42 45 50 43 37 33 28 27 28 29 29 32 30 27 27 33 40 40 45 44 47 44 39 38 34 31 27 23 25
52 52 51 48 49 46 45 44 43 44 43 44 49 42 35 30 28 22 32 30 30 28 31 27 25 32 43 47 54 51 47 44 39 39 36 29 26 20
56 53 54 50 49 46 43 45 39 44 45 47 51 45 39 27 28 29 28 27 34 22 24 26 26 25 34 47 51 50 50 48 43 41 38 31 28 22
64 57 48 47 44 43 38 37 37 40 47 47 44 34 34 31 33 31 32 32 31 38 32 29 35 28 26 39 47 49 49 47 42 40 36 33 29 25
74 59 52 48 44 48 39 36 32 34 40 44 50 44 38 31 30 38 36 40 43 46 39 42 26 36 24 30 39 43 43 43 39 38 35 35 30 28
73 60 57 51 49 53 51 50 51 54 55 56 59 56 50 37 30 38 51 40 36 26 34 37 41 29 32 25 20 19 27 31 35 38 36 36 31 31
60 61 61 70 62 54 48 44 40 34 33 37 46 46 49 44 37 36 50 35 29 25 32 32 34 43 34 32 29 27 28 27 30 35 36 35 33 34
68 74 65 63 51 49 41 35 31 21 17 25 35 37 40 37 41 34 43 42 40 34 35 25 26 31 35 31 31 27 30 32 33 37 38 33 33 35
78 76 75 59 49 46 40 29 25 24 22 24 14 30 36 40 35 33 44 38 36 25 38 23 24 25 21 33 32 25 19 18 28 35 37 34 34 37
88 78 72 60 46 43 41 33 26 22 7 4 19 30 30 28 34 31 38 27 35 27 12 39 31 27 21 8 30 33 21 18 22 30 35 35 37 38
89 82 68 62 49 43 44 35 29 19 9 5 3 15 24 28 30 39 39 33 23 26 15 13 38 30 32 16 13 33 23 20 12 19 29 32 37 39
81 74 68 70 58 43 47 48 33 28 19 10 7 11 19 24 28 33 38 34 28 28 16 15 36 20 23 14 4 12 30 14 18 12 25 33 38 42
92 87 82 75 70 56 49 51 50 37 27 20 4 11 36 27 34 41 45 35 33 26 15 15 17 20 24 17 17 13 29 18 21 19 5 16 30 38
90 87 90 91 83 75 59 54 53 46 38 27 16 2 13 38 28 33 35 39 36 36 25 23 21 21 20 19 22 9 23 35 26 33 33 22 16 30
107 96 92 93 89 84 71 59 57 51 45 32 20 10 12 29 28 25 32 40 39 33 30 24 24 29 14 11 18 17 21 28 24 28 35 25 23 27
111 104 97 95 91 85 75 66 65 60 48 41 23 10 15 24 32 31 31 36 35 30 29 28 27 33 30 26 19 30 29 29 28 24 30 28 22 29
119 107 107 102 93 86 78 71 68 66 60 51 32 14 14 24 30 33 32 34 33 33 29 27 25 29 24 16 10 6 18 27 35 27 25 28 17 18
119 118 113 110 98 87 81 73 71 69 68 65 50 26 16 22 29 23 25 31 29 25 22 23 22 25 27 9 12 5 5 26 40 31 28 28 29 22
115 117 115 111 105 94 85 81 75 72 70 68 60 39 18 15 21 22 22 28 28 18 24 18 17 17 25 15 13 5 3 24 43 30 26 30 23 18
111 113 112 110 105 99 92 84 80 72 68 64 61 44 26 19 16 16 16 17 23 18 17 18 19 20 21 20 14 11 4 13 40 37 24 22 25 19
Wind_Direction_500mb
316 312 309 301 290 291 286 284 284 285 288 289 294 312 294 278 243 247 253 237 237 255 247 220 206 206 215 221 218 218 224 235 244 263 269 276 271 235
314 311 303 300 291 291 285 283 279 277 277 284 288 289 296 283 255 235 224 233 231 243 239 210 208 209 218 209 205 213 218 227 242 261 270 274 267 248
319 314 305 300 294 286 280 275 273 271 275 281 281 279 282 277 261 227 215 238 248 242 226 222 219 217 210 199 205 211 217 225 241 254 268 272 268 254
325 318 310 305 296 291 282 273 270 267 268 274 280 277 271 274 266 230 221 226 239 245 232 232 230 223 216 212 216 220 227 228 239 254 263 269 259 256
330 319 312 306 299 293 283 277 271 265 263 265 270 276 273 266 266 242 238 226 231 223 241 228 230 225 223 221 224 229 233 237 247 254 259 261 261 256
330 319 312 305 301 295 285 280 273 266 263 263 269 267 270 260 259 252 238 220 218 214 232 231 236 236 231 230 230 232 236 242 245 249 251 254 255 248
336 330 324 313 305 300 292 284 277 267 263 266 267 266 263 256 246 246 238 225 220 215 229 227 229 233 241 233 231 232 234 239 240 245 248 247 249 236
344 340 334 330 317 307 301 281 267 263 259 258 257 257 255 257 252 242 242 230 234 234 233 226 229 229 248 237 235 235 236 240 240 242 243 242 244 231
339 338 339 334 338 324 308 297 284 270 261 257 252 246 249 241 260 266 224 227 231 231 219 229 218 229 223 234 243 238 233 233 237 239 240 239 237 227
347 351 347 337 308 337 316 304 295 282 261 249 249 250 243 241 245 263 216 221 222 222 215 242 216 225 219 210 222 234 240 241 239 239 239 236 234 224
354 356 349 348 342 332 329 318 307 292 265 256 244 248 238 229 234 241 202 199 206 221 214 213 212 217 216 214 223 230 235 245 247 241 239 232 228 222
356 358 356 357 355 353 348 338 321 298 269 244 204 218 231 233 230 225 195 198 196 210 206 209 198 204 214 216 210 226 227 239 243 236 233 227 223 217
359 2 2 3 5 11 8 0 345 336 358 226 226 226 210 226 221 196 183 200 200 215 213 214 208 209 199 206 218 214 227 242 240 235 230 221 218 212
5 2 10 11 10 23 25 17 18 16 9 17 216 217 209 207 200 194 194 198 203 204 225 222 199 208 212 239 163 191 211 237 258 251 228 218 217 207
11 6 15 20 18 25 33 34 28 36 39 25 74 58 192 190 186 183 191 193 199 208 168 173 189 202 202 215 188 212 206 206 217 271 208 214 214 206
16 14 18 23 24 30 34 41 39 37 42 46 347 33 165 166 174 184 189 194 193 189 181 175 186 187 203 206 225 207 197 195 178 200 200 205 206 205
16 13 16 20 20 24 31 38 41 42 46 57 55 150 94 156 170 184 186 186 182 190 189 179 179 200 216 212 224 160 182 199 189 182 189 208 224 205
25 16 16 18 19 21 24 31 39 42 44 47 64 141 141 174 164 166 180 184 184 190 197 203 206 217 213 207 221 206 199 189 193 198 190 182 214 212
25 17 16 17 21 23 25 30 34 37 44 50 72 79 165 170 174 168 171 181 185 195 208 215 216 221 229 240 236 220 210 202 191 184 191 189 205 224
28 19 18 19 23 25 27 30 37 38 44 47 64 77 154 158 172 178 183 188 195 203 211 220 221 210 197 203 232 257 222 212 187 189 196 189 198 222
28 26 24 24 27 31 32 35 38 39 41 46 58 73 141 158 179 185 198 190 197 204 213 229 235 220 184 232 220 254 251 180 186 186 182 191 203 206
31 30 27 26 28 32 35 37 39 40 46 51 57 75 105 148 173 175 165 181 200 211 212 215 216 198 194 195 179 236 250 184 188 189 190 199 196 206
32 32 28 28 27 30 35 39 40 40 47 52 60 74 93 105 140 164 179 186 199 202 199 203 205 209 212 216 213 207 258 203 191 194 195 201 205 189
Wind_Speed_850mb
58 59 56 51 54 49 46 44 41 44 48 39 34 33 24 25 31 33 22 24 23 23 27 33 32 37 47 49 48 41 35 37 30 35 36 36 26 30
64 61 54 52 38 44 46 45 40 45 55 46 36 27 35 25 29 21 22 27 24 29 25 33 39 42 39 36 40 44 43 41 33 37 37 34 30 30
69 54 49 45 49 46 45 44 43 41 49 52 42 35 33 26 30 27 30 28 27 22 23 27 37 38 39 40 41 45 42 37 38 36 33 28 25 31
51 49 49 49 48 44 43 45 46 42 45 50 43 37 33 28 27 28 29 29 32 30 27 27 33 40 40 45 44 47 44 39 38 34 31 27 23 25
52 52 51 48 49 46 45 44 43 44 43 44 49 42 35 30 28 22 32 30 30 28 31 27 25 32 43 47 54 51 47 44 39 39 36 29 26 20
56 53 54 50 49 46 43 45 39 44 45 47 51 45 39 27 28 29 28 27 34 22 24 26 26 25 34 47 51 50 50 48 43 41 38 31 28 22
64 57 48 47 44 43 38 37 37 40 47 47 44 34 34 31 33 31 32 32 31 38 32 29 35 28 26 39 47 49 49 47 42 40 36 33 29 25
74 59 52 48 44 48 39 36 32 34 40 44 50 44 38 31 30 38 36 40 43 46 39 42 26 36 24 30 39 43 43 43 39 38 35 35 30 28
73 60 57 51 49 53 51 50 51 54 55 56 59 56 50 37 30 38 51 40 36 26 34 37 41 29 32 25 20 19 27 31 35 38 36 36 31 31
60 61 61 70 62 54 48 44 40 34 33 37 46 46 49 44 37 36 50 35 29 25 32 32 34 43 34 32 29 27 28 27 30 35 36 35 33 34
68 74 65 63 51 49 41 35 31 21 17 25 35 37 40 37 41 34 43 42 40 34 35 25 26 31 35 31 31 27 30 32 33 37 38 33 33 35
78 76 75 59 49 46 40 29 25 24 22 24 14 30 36 40 35 33 44 38 36 25 38 23 24 25 21 33 32 25 19 18 28 35 37 34 34 37
88 78 72 60 46 43 41 33 26 22 7 4 19 30 30 28 34 31 38 27 35 27 12 39 31 27 21 8 30 33 21 18 22 30 35 35 37 38
89 82 68 62 49 43 44 35 29 19 9 5 3 15 24 28 30 39 39 33 23 26 15 13 38 30 32 16 13 33 23 20 12 19 29 32 37 39
81 74 68 70 58 43 47 48 33 28 19 10 7 11 19 24 28 33 38 34 28 28 16 15 36 20 23 14 4 12 30 14 18 12 25 33 38 42
92 87 82 75 70 56 49 51 50 37 27 20 4 11 36 27 34 41 45 35 33 26 15 15 17 20 24 17 17 13 29 18 21 19 5 16 30 38
90 87 90 91 83 75 59 54 53 46 38 27 16 2 13 38 28 33 35 39 36 36 25 23 21 21 20 19 22 9 23 35 26 33 33 22 16 30
107 96 92 93 89 84 71 59 57 51 45 32 20 10 12 29 28 25 32 40 39 33 30 24 24 29 14 11 18 17 21 28 24 28 35 25 23 27
111 104 97 95 91 85 75 66 65 60 48 41 23 10 15 24 32 31 31 36 35 30 29 28 27 33 30 26 19 30 29 29 28 24 30 28 22 29
119 107 107 102 93 86 78 71 68 66 60 51 32 14 14 24 30 33 32 34 33 33 29 27 25 29 24 16 10 6 18 27 35 27 25 28 17 18
119 118 113 110 98 87 81 73 71 69 68 65 50 26 16 22 29 23 25 31 29 25 22 23 22 25 27 9 12 5 5 26 40 31 28 28 29 22
115 117 115 111 105 94 85 81 75 72 70 68 60 39 18 15 21 22 22 28 28 18 24 18 17 17 25 15 13 5 3 24 43 30 26 30 23 18
111 113 112 110 105 99 92 84 80 72 68 64 61 44 26 19 16 16 16 17 23 18 17 18 19 20 21 20 14 11 4 13 40 37 24 22 25 19
Wind_Direction_850mb
316 312 309 301 290 291 286 284 284 285 288 289 294 312 294 278 243 247 253 237 237 255 247 220 206 206 215 221 218 218 224 235 244 263 269 276 271 235
314 311 303 300 291 291 285 283 279 277 277 284 288 289 296 283 255 235 224 233 231 243 239 210 208 209 218 209 205 213 218 227 242 261 270 274 267 248
319 314 305 300 294 286 280 275 273 271 275 281 281 279 282 277 261 227 215 238 248 242 226 222 219 217 210 199 205 211 217 225 241 254 268 272 268 254
325 318 310 305 296 291 282 273 270 267 268 274 280 277 271 274 266 230 221 226 239 245 232 232 230 223 216 212 216 220 227 228 239 254 263 269 259 256
330 319 312 306 299 293 283 277 271 265 263 265 270 276 273 266 266 242 238 226 231 223 241 228 230 225 223 221 224 229 233 237 247 254 259 261 261 256
330 319 312 305 301 295 285 280 273 266 263 263 269 267 270 260 259 252 238 220 218 214 232 231 236 236 231 230 230 232 236 242 245 249 251 254 255 248
336 330 324 313 305 300 292 284 277 267 263 266 267 266 263 256 246 246 238 225 220 215 229 227 229 233 241 233 231 232 234 239 240 245 248 247 249 236
344 340 334 330 317 307 301 281 267 263 259 258 257 257 255 257 252 242 242 230 234 234 233 226 229 229 248 237 235 235 236 240 240 242 243 242 244 231
339 338 339 334 338 324 308 297 284 270 261 257 252 246 249 241 260 266 224 227 231 231 219 229 218 229 223 234 243 238 233 233 237 239 240 239 237 227
347 351 347 337 308 337 316 304 295 282 261 249 249 250 243 241 245 263 216 221 222 222 215 242 216 225 219 210 222 234 240 241 239 239 239 236 234 224
354 356 349 348 342 332 329 318 307 292 265 256 244 248 238 229 234 241 202 199 206 221 214 213 212 217 216 214 223 230 235 245 247 241 239 232 228 222
356 358 356 357 355 353 348 338 321 298 269 244 204 218 231 233 230 225 195 198 196 210 206 209 198 204 214 216 210 226 227 239 243 236 233 227 223 217
359 2 2 3 5 11 8 0 345 336 358 226 226 226 210 226 221 196 183 200 200 215 213 214 208 209 199 206 218 214 227 242 240 235 230 221 218 212
5 2 10 11 10 23 25 17 18 16 9 17 216 217 209 207 200 194 194 198 203 204 225 222 199 208 212 239 163 191 211 237 258 251 228 218 217 207
11 6 15 20 18 25 33 34 28 36 39 25 74 58 192 190 186 183 191 193 199 208 168 173 189 202 202 215 188 212 206 206 217 271 208 214 214 206
16 14 18 23 24 30 34 41 39 37 42 46 347 33 165 166 174 184 189 194 193 189 181 175 186 187 203 206 225 207 197 195 178 200 200 205 206 205
16 13 16 20 20 24 31 38 41 42 46 57 55 150 94 156 170 184 186 186 182 190 189 179 179 200 216 212 224 160 182 199 189 182 189 208 224 205
25 16 16 18 19 21 24 31 39 42 44 47 64 141 141 174 164 166 180 184 184 190 197 203 206 217 213 207 221 206 199 189 193 198 190 182 214 212
25 17 16 17 21 23 25 30 34 37 44 50 72 79 165 170 174 168 171 181 185 195 208 215 216 221 229 240 236 220 210 202 191 184 191 189 205 224
28 19 18 19 23 25 27 30 37 38 44 47 64 77 154 158 172 178 183 188 195 203 211 220 221 210 197 203 232 257 222 212 187 189 196 189 198 222
28 26 24 24 27 31 32 35 38 39 41 46 58 73 141 158 179 185 198 190 197 204 213 229 235 220 184 232 220 254 251 180 186 186 182 191 203 206
31 30 27 26 28 32 35 37 39 40 46 51 57 75 105 148 173 175 165 181 200 211 212 215 216 198 194 195 179 236 250 184 188 189 190 199 196 206
32 32 28 28 27 30 35 39 40 40 47 52 60 74 93 105 140 164 179 186 199 202 199 203 205 209 212 216 213 207 258 203 191 194 195 201 205 189